Theta_e
316 316 320 320 320 317 320 321 323 328 347 342 347 348 348 347 350 353 350 353 355 342 344 343 337 328 326 325 326 329 329 329 331 333 333 335 333 330 330 330 327 331 333 336 341 343 343 340 340
315 316 323 317 319 320 319 320 322 340 343 344 345 346 347 348 345 345 347 352 349 343 344 343 339 332 328 325 326 329 330 330 331 333 333 333 328 329 331 329 329 334 338 339 341 343 343 341 340
314 317 318 316 316 320 320 320 321 342 344 348 346 345 348 352 348 349 349 354 340 341 341 342 341 336 330 327 326 329 330 331 331 332 333 332 328 330 331 329 331 336 338 340 342 344 343 342 340
320 316 313 318 321 319 321 320 321 339 344 348 348 352 347 345 349 346 353 353 341 339 338 340 340 339 335 331 327 328 331 331 332 332 332 329 328 330 331 330 330 337 339 338 339 343 343 343 342
319 312 316 315 316 318 318 317 318 323 353 353 345 355 350 339 344 351 352 349 340 339 337 338 339 340 340 338 331 327 330 331 331 332 331 330 328 330 330 330 329 334 337 338 338 341 343 343 343
315 312 317 318 318 317 316 317 323 342 351 348 347 341 339 349 351 348 350 347 341 335 333 335 338 340 341 341 338 329 330 331 332 332 332 331 330 331 330 330 330 330 337 338 338 340 342 343 343
319 314 316 317 318 317 318 319 323 336 347 352 345 353 354 349 351 351 349 346 345 336 330 335 338 340 341 342 342 334 330 331 332 332 333 332 332 332 330 329 330 328 333 337 338 341 342 344 344
315 314 319 317 316 316 315 322 321 325 327 348 355 365 353 345 339 343 351 348 349 336 328 331 335 338 340 342 342 340 331 331 332 333 333 333 332 333 331 328 329 329 328 336 338 340 343 344 345
314 313 312 314 317 316 315 319 321 322 333 339 352 357 350 347 337 342 351 350 348 335 329 330 334 336 340 341 342 340 333 332 332 335 335 335 333 331 332 328 326 328 327 333 337 340 341 344 344
315 312 315 313 315 315 315 318 316 322 325 335 351 354 349 339 336 341 352 344 344 343 339 332 331 338 341 341 340 340 339 336 335 338 337 336 334 332 332 331 326 326 327 326 335 339 341 343 344
315 315 315 317 315 316 317 317 316 320 320 324 353 351 346 341 342 351 352 346 342 343 340 335 336 335 335 335 335 339 340 339 339 340 339 337 335 333 333 334 331 329 327 327 328 336 340 341 343
316 315 315 317 315 316 318 318 318 318 319 320 343 339 337 341 343 351 351 349 347 344 339 333 331 333 336 331 331 332 333 334 334 338 337 336 335 335 341 341 337 335 334 328 326 328 334 338 340
315 315 315 315 314 315 319 319 319 317 317 318 322 335 342 345 343 340 344 341 349 346 341 339 336 336 342 343 335 331 331 330 331 332 335 335 333 337 341 342 343 341 337 334 327 325 326 333 338
317 318 316 317 319 317 319 319 319 319 318 319 320 320 320 320 321 322 331 345 350 350 347 345 341 341 341 343 343 340 334 338 337 335 336 338 335 335 339 343 344 344 340 338 333 326 331 332 333
319 319 316 318 320 319 318 318 319 318 318 319 318 318 319 320 322 322 325 338 351 352 351 349 346 342 341 346 346 345 333 340 342 341 340 339 343 343 344 343 345 344 342 342 337 333 336 336 337
318 318 319 318 319 319 318 318 318 317 318 318 318 317 318 319 320 322 322 329 341 350 352 351 348 341 348 342 350 351 348 346 346 344 341 341 341 330 338 342 346 345 344 343 340 338 336 337 338
314 318 319 320 318 318 318 319 318 317 317 317 316 317 318 317 317 320 322 323 332 334 349 351 349 348 343 353 353 350 348 347 346 346 344 342 341 335 334 340 341 337 342 344 342 341 340 339 339
319 318 318 319 321 319 317 318 317 318 317 317 316 316 317 317 317 321 322 323 324 331 343 346 350 349 345 346 347 348 348 348 347 345 344 342 337 333 335 331 331 340 342 343 342 342 342 342 340
320 321 320 320 319 319 318 317 317 317 317 317 316 317 316 317 317 320 322 323 324 324 338 345 355 355 346 334 347 349 348 347 346 344 340 341 339 336 332 334 335 343 343 342 342 342 340 339 340
321 318 318 318 319 320 318 319 318 318 317 316 316 316 317 316 316 317 319 324 324 325 325 337 345 346 341 335 342 342 345 348 340 342 341 339 339 335 334 332 342 344 342 341 341 340 340 340 340
320 320 319 319 320 319 320 319 319 319 318 318 318 316 316 315 316 316 316 322 325 327 327 330 340 342 340 335 339 331 338 346 343 343 341 336 333 334 340 342 344 344 342 336 340 339 338 337 338
321 320 320 321 320 320 320 320 318 319 318 318 318 316 317 316 316 317 317 323 326 328 327 326 334 340 340 334 336 330 339 341 343 343 341 335 326 336 339 338 342 342 341 340 339 340 341 341 340
320 320 321 322 320 319 320 320 320 319 319 319 319 320 318 317 318 317 320 324 328 328 329 326 329 341 340 336 334 335 336 338 340 343 339 332 332 338 337 338 339 338 340 337 338 342 342 342 340
321 321 319 317 317 320 320 321 322 320 320 320 321 320 320 317 316 316 322 324 328 330 329 329 331 338 343 340 338 335 337 333 341 340 337 337 340 342 341 340 338 338 340 341 340 341 342 341 341
320 319 322 322 321 323 320 321 320 320 323 323 321 321 321 320 318 317 322 321 326 332 332 331 330 337 342 345 343 338 335 335 336 338 338 339 340 341 340 339 339 340 341 342 340 339 341 340 340
321 320 326 331 330 329 324 326 323 322 323 323 323 322 322 321 319 320 318 321 323 329 332 332 332 330 334 343 344 341 340 338 334 335 336 338 339 339 340 340 340 341 342 341 338 337 336 336 336
320 320 319 320 322 325 323 322 322 322 322 320 319 322 322 321 320 320 320 322 323 326 329 331 332 334 333 337 346 345 345 344 339 335 335 333 335 336 337 338 340 340 338 337 337 334 333 335 335
318 317 320 320 326 325 322 325 322 322 318 317 317 319 321 320 320 320 321 322 324 327 330 331 331 335 337 345 348 348 345 344 344 344 339 336 336 336 333 334 335 337 338 337 333 328 330 328 328
312 314 315 314 318 324 326 323 324 319 315 315 316 317 320 320 321 320 321 322 321 323 325 329 332 336 340 343 345 346 345 344 343 342 338 336 334 331 330 334 338 338 337 331 327 322 321 322 323
311 312 311 314 317 316 324 323 314 314 316 316 316 316 317 319 319 319 320 321 321 321 322 322 323 326 332 335 336 337 338 338 338 338 336 335 330 331 334 336 335 332 329 326 322 321 321 322 322
Wind_Speed
13 11 13 3 4 5 3 7 1 7 5 5 10 8 6 6 6 5 18 14 22 25 26 25 23 23 22 22 22 22 22 23 23 21 21 22 22 21 20 19 18 18 18 17 18 18 20 19 17
11 10 3 2 4 3 5 5 6 5 13 19 17 12 4 3 3 3 9 14 26 27 26 25 24 24 23 22 22 22 21 21 21 20 19 20 20 20 19 18 18 17 16 15 15 16 19 18 17
9 4 3 3 3 4 5 4 5 14 19 5 7 2 4 5 3 8 10 22 31 28 25 24 22 23 23 22 22 21 20 20 19 18 17 17 18 18 17 16 16 16 15 14 13 14 16 16 16
5 5 4 3 5 8 5 10 15 14 8 5 7 6 1 1 2 10 14 18 24 24 25 25 24 21 20 20 21 21 19 18 18 17 16 15 15 15 14 13 13 13 12 12 12 13 15 15 14
3 3 3 2 6 5 6 8 8 5 7 9 5 7 1 6 6 17 20 23 27 24 23 23 22 22 21 20 20 20 20 18 17 16 14 13 12 13 12 12 11 11 10 9 10 11 14 15 13
4 3 3 3 5 6 8 10 4 8 11 6 6 6 1 13 14 12 17 22 28 27 25 22 20 20 21 20 19 20 19 17 15 14 13 12 10 10 9 9 8 9 8 7 7 9 11 12 12
4 3 4 4 5 8 6 6 4 13 10 5 16 6 3 9 12 18 20 20 26 24 25 23 22 20 19 20 20 19 18 17 15 14 13 12 11 10 9 9 8 7 7 7 7 10 11 12 11
5 3 3 2 1 6 8 2 5 5 5 15 16 7 5 9 21 15 19 21 23 27 27 26 24 22 22 22 22 21 20 18 17 16 15 13 12 11 10 8 8 8 8 7 8 10 12 13 12
4 3 3 4 2 6 10 6 6 4 10 4 4 11 21 39 32 31 15 22 26 30 32 29 27 27 25 25 22 19 18 18 17 15 14 14 14 13 12 11 10 9 9 8 8 9 11 12 12
4 4 7 8 5 7 8 5 8 4 5 6 11 18 37 33 22 16 17 16 17 18 31 32 32 28 25 24 24 22 20 20 18 16 15 14 13 13 12 11 11 11 10 10 9 9 11 12 13
3 7 8 15 13 2 6 6 8 2 5 5 14 24 26 31 23 21 22 33 32 25 30 34 30 28 27 27 26 25 23 22 20 19 18 15 14 14 12 12 12 11 11 11 11 11 12 13 13
3 9 8 16 5 4 4 2 4 5 3 2 20 25 18 17 17 19 22 37 25 32 31 30 31 30 28 25 27 28 26 22 23 23 20 19 18 17 15 13 14 15 15 14 14 14 14 14 14
6 12 11 16 9 8 3 4 3 6 6 5 8 22 19 15 14 24 33 39 27 29 35 33 33 32 28 24 25 26 23 24 24 21 20 19 20 18 16 17 17 18 17 17 18 17 17 17 17
4 6 10 6 4 3 4 4 5 6 7 4 7 7 11 12 13 23 23 32 36 36 36 35 35 33 29 29 27 24 23 23 21 20 20 21 20 22 21 16 22 22 20 18 18 19 19 17 19
6 6 8 4 2 2 4 8 4 9 6 9 2 8 8 8 8 9 28 32 40 41 41 40 38 37 29 29 29 25 24 23 25 20 21 21 22 20 17 14 18 26 22 17 19 20 21 21 21
6 2 4 7 5 6 7 11 13 9 5 8 10 8 9 8 11 17 14 28 33 40 43 45 42 39 31 25 30 28 27 27 22 19 22 25 28 16 19 16 13 17 18 20 19 25 24 25 26
6 4 6 11 6 6 6 11 15 8 6 9 9 9 9 8 8 17 22 24 33 32 40 44 41 36 30 27 30 28 28 29 25 24 26 28 30 22 19 18 18 17 8 12 10 21 22 23 19
7 5 4 7 12 2 12 18 10 7 6 10 9 10 10 10 12 22 26 32 34 40 44 41 43 37 34 30 27 28 30 30 25 22 21 20 22 21 21 9 15 18 10 12 11 11 11 3 10
3 5 8 6 6 2 4 6 7 10 3 7 8 9 9 10 12 25 26 32 32 36 44 39 45 42 37 27 26 28 29 27 24 20 15 17 18 22 22 13 11 12 13 14 9 10 8 7 8
13 8 6 6 6 1 7 7 8 7 8 9 10 9 10 8 9 11 24 29 35 38 40 43 47 47 41 37 33 29 27 28 24 23 20 18 22 19 20 16 14 12 12 9 10 9 5 3 4
6 2 5 7 5 4 1 6 3 6 4 7 8 9 8 12 14 12 12 24 35 37 42 44 47 47 42 37 30 24 24 23 26 28 26 24 22 17 16 16 14 16 12 9 6 4 3 2 2
4 7 6 4 4 3 3 5 5 5 9 8 11 10 11 11 13 15 10 14 30 39 44 43 43 44 41 36 33 29 27 25 31 34 32 28 26 22 17 16 18 15 14 11 8 6 7 7 6
8 5 5 3 2 3 5 3 6 6 9 12 12 15 12 14 15 17 12 22 34 39 44 43 40 43 41 38 35 32 25 31 34 36 35 33 32 29 24 23 23 18 16 12 10 9 8 9 9
6 4 4 5 3 7 5 4 10 4 7 7 9 12 19 19 16 10 16 21 26 33 39 39 38 38 42 40 37 37 31 25 34 37 36 35 35 33 29 26 24 21 19 16 12 11 11 10 11
10 7 4 5 3 10 4 4 6 6 10 11 13 17 19 20 22 8 9 8 14 26 34 37 38 36 38 40 37 36 35 29 36 36 37 36 37 36 34 31 29 26 23 18 14 12 11 11 12
4 6 4 5 4 9 3 4 5 6 10 13 16 14 18 20 19 21 10 6 18 26 31 30 32 33 33 36 38 35 34 33 32 30 35 42 42 40 38 36 33 29 25 20 15 13 11 10 11
4 4 4 3 4 1 5 5 3 11 15 18 17 15 13 13 14 17 18 17 11 23 28 32 32 34 33 32 35 35 27 23 28 27 29 31 42 40 37 35 33 30 25 21 18 15 13 11 11
6 2 4 4 3 6 3 2 2 9 12 14 18 13 9 8 11 13 15 24 15 19 11 30 36 35 31 27 26 29 29 27 22 22 25 31 34 32 32 33 32 30 27 23 19 17 14 12 12
5 2 1 2 4 4 1 5 4 4 7 13 10 12 7 8 6 7 9 18 23 22 19 13 7 9 24 26 26 21 21 23 22 24 23 25 25 29 30 33 34 32 29 24 21 16 12 11 10
2 4 5 4 6 3 4 6 8 17 13 13 11 12 15 8 6 7 5 16 17 19 21 26 29 18 9 10 19 25 23 21 21 17 20 24 22 27 29 31 30 28 25 21 18 14 12 11 10
Wind_Direction
307 311 318 14 46 62 290 281 235 60 49 295 119 146 176 147 160 202 150 169 206 177 165 162 161 155 153 153 151 147 143 138 135 130 127 126 125 125 123 122 120 120 120 123 124 126 126 122 119
315 336 34 58 86 43 286 264 11 99 131 116 109 120 156 197 288 192 144 160 171 169 162 164 167 160 156 157 157 154 149 144 140 136 134 132 131 129 127 127 126 124 122 123 125 127 131 126 123
318 325 73 90 114 171 215 252 85 153 155 177 124 27 170 163 319 6 125 153 162 163 162 167 172 165 160 159 161 158 154 150 144 139 138 136 135 133 130 129 128 127 126 125 127 130 134 130 125
337 14 25 92 237 247 231 284 283 162 234 307 125 115 34 20 86 23 151 159 165 164 166 170 172 171 165 163 163 161 160 157 149 146 144 141 140 137 133 130 129 129 128 129 133 137 139 138 131
3 60 38 329 270 284 266 261 252 95 121 167 164 148 128 9 206 124 156 162 173 170 172 169 173 173 172 170 167 168 166 164 158 151 147 146 146 142 139 136 133 133 132 130 136 146 146 146 141
11 90 47 267 286 285 288 259 308 112 152 150 98 111 166 37 79 117 158 176 180 170 173 170 172 176 174 175 174 173 171 167 162 156 152 151 155 149 144 140 136 137 138 134 139 149 154 154 151
125 84 222 260 280 327 289 289 128 142 165 166 146 103 59 42 108 158 183 188 183 173 170 170 169 172 173 177 176 176 175 170 168 167 165 163 165 162 158 156 154 155 154 149 150 153 159 162 164
128 99 291 266 332 268 290 327 167 90 36 149 155 130 175 224 131 217 190 186 186 178 177 173 172 171 170 171 174 175 177 177 176 177 175 172 173 174 174 176 176 175 176 173 168 168 167 167 173
112 48 262 254 280 292 326 337 343 36 98 185 148 128 169 168 169 189 154 177 190 186 181 176 175 176 172 168 168 173 178 181 183 185 184 183 183 185 184 186 190 190 192 191 189 186 180 178 177
125 153 239 209 246 286 297 38 311 79 79 36 79 115 157 172 195 156 154 163 197 207 184 182 179 174 168 168 172 175 181 185 186 192 197 196 196 198 195 196 203 201 202 204 202 200 195 193 189
217 215 239 264 254 210 269 12 341 49 71 163 146 150 163 178 185 174 171 182 199 203 191 187 181 173 175 177 178 181 184 188 188 196 201 204 205 201 204 207 207 211 217 216 214 209 206 205 202
240 260 241 262 259 223 228 268 18 4 8 198 158 163 169 178 183 173 173 197 179 187 193 189 186 181 185 181 186 188 184 192 195 197 201 203 206 206 203 205 212 220 224 224 222 221 216 214 216
183 260 261 245 256 228 196 144 216 290 297 57 112 151 177 187 189 185 197 213 184 176 184 188 187 184 184 186 188 193 189 199 199 196 199 204 205 207 213 223 229 235 233 234 230 226 223 220 221
245 288 276 275 275 260 234 229 130 274 296 347 141 178 162 167 171 152 149 154 171 178 186 186 187 186 193 198 194 193 189 196 193 194 196 200 207 210 218 218 229 231 234 240 238 235 233 228 226
288 311 325 294 304 263 12 312 228 228 269 290 248 187 188 195 201 243 154 164 177 183 187 189 191 187 198 196 197 197 198 198 189 194 201 203 209 216 207 210 223 230 238 237 239 238 239 243 248
345 54 1 286 323 272 127 268 261 240 178 251 260 204 190 190 198 209 218 166 172 179 184 191 193 194 189 193 194 204 204 200 197 200 206 211 217 222 217 206 213 215 244 238 251 245 245 248 246
359 256 293 304 204 246 172 263 261 254 217 249 245 219 207 203 217 220 212 179 173 178 183 187 193 200 200 190 194 193 185 187 193 200 203 211 222 237 225 211 222 211 180 231 245 240 252 255 237
225 237 284 260 283 238 254 242 247 247 195 236 251 203 204 205 215 221 210 201 179 176 181 184 190 193 186 185 175 179 179 188 194 197 209 218 228 234 210 229 228 214 238 228 217 212 222 243 274
268 247 254 252 243 327 297 283 245 249 267 244 242 213 235 229 228 225 219 211 198 183 178 182 182 186 182 178 167 165 171 179 183 188 201 209 211 216 219 247 215 210 228 249 263 267 292 301 274
253 227 275 271 293 75 296 282 259 250 254 239 219 244 230 240 242 235 222 212 202 190 188 180 182 181 182 180 184 179 175 181 194 196 202 215 210 218 217 206 215 215 225 239 254 264 279 290 271
245 259 262 255 334 338 8 321 298 291 243 304 310 274 265 228 231 229 225 210 207 195 188 182 180 180 183 181 180 180 171 183 189 194 200 203 205 199 203 205 212 215 212 221 214 229 261 299 274
210 236 240 273 49 283 71 276 293 293 326 322 308 302 281 260 245 231 204 191 195 196 190 186 185 184 185 183 180 181 179 170 188 192 198 198 193 185 190 195 201 202 209 223 234 245 249 245 267
242 252 225 219 294 24 347 1 273 15 326 293 302 288 287 265 249 231 193 195 197 191 188 190 189 188 186 187 187 184 189 191 192 189 194 193 189 188 186 193 196 203 209 222 232 237 254 254 260
269 281 24 45 86 273 177 163 294 307 261 310 294 344 0 336 311 226 193 176 181 183 186 191 190 190 191 192 194 193 189 186 182 187 189 190 191 194 195 199 200 207 210 216 226 236 245 248 253
41 44 353 337 334 261 161 269 261 290 0 12 11 12 14 9 9 326 154 159 169 179 189 193 193 192 195 197 200 203 203 197 188 192 194 192 196 198 199 203 205 208 212 214 220 227 235 243 257
307 126 157 215 237 282 324 248 252 90 40 37 28 16 17 13 6 2 344 199 188 187 190 189 197 202 202 203 202 206 210 211 208 197 197 198 197 199 201 207 207 210 208 205 211 223 236 246 259
331 49 247 198 271 293 215 280 44 30 22 11 7 18 15 17 5 1 350 357 296 192 199 202 206 209 207 212 210 206 204 207 217 207 203 206 201 201 200 198 198 199 201 202 207 222 232 244 259
111 268 22 20 289 287 259 212 236 22 6 4 347 356 349 5 17 18 10 357 27 358 240 209 211 206 201 204 213 214 215 217 218 213 204 206 202 204 213 208 200 196 199 204 211 217 223 243 260
13 34 86 156 171 219 314 267 147 83 346 349 344 340 331 345 358 25 25 16 5 47 41 35 18 212 191 197 201 194 200 210 212 210 197 197 205 206 200 198 196 196 199 205 209 215 222 236 256
145 63 92 106 292 266 192 249 8 23 24 17 359 354 346 312 318 350 37 47 13 20 49 46 28 11 339 251 221 212 205 205 205 198 200 205 199 192 191 190 193 199 200 202 208 214 222 235 250